Theta_e
332 333 333 332 331 332 333 333 334 332 332 331 331 331 331 332 333 333 332 333 332 333 333 334 334 332 332 331 330 330 328 327 326 326 326 326 326 328 328 326 325 327 327 326 326 326 326 326 326 326 325 324 323 322 322 321 321 321 321 321 320 320 320 320 320 320 320 321 321 321 322 322 322 320 320 320 318 318 319 320 320 320 320 319 319
332 332 333 331 329 330 331 331 332 332 332 332 331 331 331 332 332 332 332 332 332 332 332 334 334 332 332 331 330 329 328 327 326 326 326 327 327 327 327 325 324 327 327 326 326 327 327 326 325 324 324 323 323 321 321 322 321 321 321 320 321 320 320 320 320 319 319 320 320 320 321 321 320 319 319 319 318 319 320 320 320 319 318 318 318
333 333 334 332 330 330 331 330 329 330 332 332 332 331 331 332 332 332 332 331 331 332 332 333 334 333 332 332 331 330 329 327 326 326 327 328 327 327 326 323 323 326 327 327 327 327 326 325 324 323 323 323 323 322 321 321 321 321 320 320 320 319 319 319 319 319 319 319 319 319 320 319 319 319 319 318 319 320 320 320 319 318 317 317 317
334 334 334 333 332 331 331 332 330 329 331 332 332 331 331 331 331 331 331 330 330 331 331 332 333 333 332 332 331 330 329 327 326 326 326 326 325 324 323 322 324 326 327 327 327 326 326 325 324 324 325 324 323 322 321 321 321 321 320 319 319 319 319 319 319 319 319 319 319 319 319 319 319 319 318 318 319 320 319 319 318 317 318 318 319
336 335 336 335 334 333 332 332 333 330 330 331 332 331 330 331 330 330 331 330 330 331 332 332 332 332 332 332 331 330 329 327 326 326 326 323 321 321 323 325 325 325 325 325 325 325 326 326 326 326 325 325 324 323 321 320 321 321 320 320 320 319 319 319 319 319 319 319 319 319 318 319 319 318 318 318 319 319 318 318 318 318 318 318 319
336 336 336 336 335 335 333 333 334 333 330 330 330 329 330 330 330 330 330 330 331 331 331 331 332 332 332 332 331 330 329 327 326 325 324 321 321 322 324 327 327 325 324 323 325 326 327 326 325 324 325 324 324 323 321 321 321 321 320 320 319 320 319 319 319 319 319 319 319 319 318 317 318 318 318 318 318 318 318 318 318 319 319 318 318
336 337 336 336 336 335 334 334 334 334 333 331 330 329 329 330 330 331 330 330 331 331 330 331 331 331 332 331 331 330 328 328 326 324 322 321 322 323 325 326 327 326 324 324 327 327 328 327 324 322 323 324 323 323 322 322 322 320 320 320 319 319 319 319 319 319 318 319 319 319 318 317 317 317 317 317 318 318 318 319 319 319 319 319 319
334 336 337 337 335 335 335 335 334 335 335 334 333 331 329 330 330 330 331 331 331 331 330 330 330 330 331 332 331 329 329 328 326 324 322 323 323 324 326 326 326 326 325 326 327 328 328 328 326 321 319 321 323 322 322 322 321 320 320 319 318 318 319 319 319 319 319 319 319 319 319 318 318 318 317 317 318 318 319 319 319 319 319 318 319
333 336 337 336 335 335 335 335 335 335 335 334 334 332 331 330 331 332 332 331 331 330 330 330 330 331 331 331 330 329 329 329 326 324 323 323 324 325 326 325 325 325 325 327 327 328 328 327 326 322 318 319 321 322 321 321 320 320 321 319 317 317 319 320 319 319 319 319 319 319 319 319 318 318 318 318 318 319 319 318 318 319 319 318 318
334 336 337 337 336 335 334 334 335 335 334 334 334 333 332 332 332 333 332 332 331 331 330 330 330 331 332 331 330 329 330 330 327 325 324 324 324 325 325 325 324 323 325 327 327 328 328 326 325 324 321 320 322 323 323 322 321 320 321 320 318 318 319 319 319 319 319 319 319 318 318 318 318 318 318 318 319 320 320 319 319 319 318 318 318
335 335 337 337 336 335 334 334 335 334 333 333 334 333 333 333 334 333 332 332 331 331 330 330 330 331 333 331 330 330 330 331 328 326 325 325 325 325 325 325 324 324 325 327 327 328 328 326 324 323 323 323 324 325 326 325 324 323 321 321 320 319 320 320 319 319 320 318 318 318 318 317 317 317 318 319 319 319 319 319 320 320 319 319 319
336 336 336 336 335 333 331 333 334 333 333 333 333 333 334 334 334 333 331 331 330 330 330 329 330 331 332 332 331 331 331 331 329 327 326 325 325 326 326 326 325 325 326 327 327 327 327 326 324 322 323 325 326 326 326 326 326 326 325 323 321 318 320 321 319 318 318 318 316 316 316 315 316 318 319 319 318 317 318 319 320 320 320 320 320
336 336 337 335 334 332 331 333 333 332 333 334 334 333 334 334 332 331 331 330 330 330 330 329 330 331 331 331 331 331 331 330 329 329 328 326 326 326 327 326 326 327 327 327 328 327 326 326 325 323 323 326 327 327 327 326 326 327 327 327 324 322 320 320 320 316 312 314 313 311 311 313 316 318 317 317 316 318 319 320 321 320 320 321 321
335 335 337 335 333 333 333 333 332 332 333 334 334 334 333 333 331 330 330 330 329 329 329 329 330 330 330 331 330 330 330 329 330 329 328 328 327 327 327 327 327 328 328 328 327 326 325 325 325 323 324 326 326 326 327 327 327 327 328 328 327 326 323 320 322 315 307 311 310 307 309 312 315 316 316 317 318 320 321 321 321 321 321 321 321
332 333 337 334 332 333 333 333 332 332 333 334 335 334 333 332 331 331 330 329 329 329 329 329 329 330 330 331 331 330 329 329 329 329 328 328 328 328 328 328 328 329 329 328 327 325 325 325 325 324 324 325 325 325 326 326 327 327 327 328 327 328 327 323 323 317 310 314 312 308 311 315 317 319 319 321 321 322 322 321 322 321 322 322 321
331 334 336 334 332 332 333 332 332 332 333 334 334 334 334 332 331 331 330 329 329 328 329 329 329 329 329 329 329 329 330 330 328 328 328 329 329 329 328 328 329 329 329 329 327 325 324 325 326 326 325 325 325 326 326 325 326 326 327 327 326 327 328 326 323 317 313 318 317 312 314 319 321 323 323 323 323 323 323 322 322 322 322 322 320
332 334 334 333 332 333 333 332 331 332 333 334 334 334 334 332 331 331 330 330 329 328 329 329 329 329 328 328 328 330 331 329 328 328 329 329 329 329 329 329 329 329 329 329 328 327 326 326 327 327 326 325 325 325 325 325 325 326 326 326 326 326 328 327 323 319 314 317 320 319 319 323 324 324 324 323 324 324 323 322 321 322 322 321 319
333 335 334 333 333 333 332 331 332 333 333 334 334 334 334 333 332 331 331 330 330 329 329 329 329 328 328 327 327 327 328 329 329 329 328 328 328 327 328 328 329 329 328 328 328 328 327 327 328 328 327 326 326 325 326 326 326 327 326 326 326 325 327 326 324 322 316 314 321 323 323 325 325 324 324 323 324 324 323 320 317 317 319 318 316
335 334 333 333 333 332 332 331 332 333 334 334 334 334 334 333 333 332 331 331 329 329 329 329 329 328 327 327 327 327 327 328 328 328 328 329 328 327 327 328 328 328 328 328 328 328 328 328 328 327 327 327 327 327 327 327 327 327 327 326 326 325 326 326 324 324 320 316 322 325 324 325 325 324 324 324 324 324 322 318 312 312 313 313 311
335 334 332 333 332 332 333 332 332 333 334 335 334 334 333 334 333 332 331 330 330 330 330 330 329 328 327 328 329 328 327 327 327 327 328 328 328 327 327 327 328 328 327 327 328 328 328 328 328 328 328 327 327 328 327 327 327 327 327 326 325 325 325 326 325 324 323 321 323 325 325 325 325 324 325 324 323 324 320 312 306 306 307 306 305
332 332 331 332 332 333 334 333 333 333 334 335 334 333 333 334 333 333 331 330 330 330 331 330 330 329 327 328 329 328 327 327 326 326 326 327 327 327 327 327 328 327 327 327 328 328 328 328 328 327 327 327 326 325 325 326 326 326 326 325 325 325 324 326 325 324 324 323 324 325 325 325 325 324 324 323 322 322 317 307 303 304 304 303 302
331 332 331 330 332 334 333 334 334 333 334 334 334 334 334 333 333 333 332 330 330 330 330 330 330 330 328 329 328 327 327 326 326 326 325 325 327 327 327 327 327 327 327 327 327 328 328 327 327 326 326 325 322 323 324 325 326 325 325 324 325 325 324 326 326 325 324 324 325 326 325 326 326 324 323 322 321 319 311 303 302 303 302 301 301
332 333 332 331 332 334 333 334 334 334 333 333 333 333 333 334 333 333 331 330 330 330 330 330 330 330 329 329 329 328 328 327 327 326 325 325 326 326 327 327 327 327 327 328 328 328 328 327 326 326 325 322 321 323 324 324 324 324 324 325 325 325 325 326 327 325 325 324 324 325 325 325 325 324 323 320 316 310 304 302 302 302 301 301 300
332 333 333 332 333 333 333 334 334 334 332 332 333 333 333 334 334 332 331 330 330 330 331 330 330 330 330 329 329 329 329 328 327 326 326 325 325 326 326 326 327 327 327 328 327 328 328 327 326 326 324 322 321 324 323 322 323 324 324 325 325 325 326 326 327 326 326 324 323 324 324 324 324 323 318 312 307 304 303 303 302 302 301 300 299
332 332 333 333 333 333 333 333 334 333 332 332 333 333 333 333 334 333 332 331 331 331 331 331 330 330 331 330 330 329 329 328 327 327 326 325 325 326 326 326 326 326 327 327 326 327 326 326 326 326 325 322 321 323 322 319 321 323 324 325 325 325 326 326 325 325 326 324 324 324 324 324 323 317 310 305 304 305 305 303 302 301 300 299 298
332 333 333 333 333 333 333 333 334 333 332 332 334 334 333 333 333 333 333 332 331 332 331 331 331 330 330 330 330 330 329 328 327 327 326 325 325 325 325 325 326 326 326 326 326 326 325 325 325 325 325 323 322 323 321 315 314 317 318 319 323 324 325 325 324 324 325 323 324 324 323 323 319 311 306 305 305 306 305 303 301 300 299 298 299
332 333 333 333 333 333 333 333 333 333 333 333 333 333 333 333 333 333 333 332 332 332 332 331 331 331 331 330 330 330 329 328 328 327 327 326 326 325 325 325 326 326 325 325 326 326 325 325 325 325 325 324 322 321 321 314 309 310 310 310 315 320 323 325 323 324 324 323 323 323 322 321 314 306 305 305 305 305 304 302 300 299 299 299 299
332 333 333 333 333 332 332 332 332 332 333 333 333 333 334 334 333 333 332 332 332 332 332 331 331 330 330 330 330 330 329 329 328 327 327 327 326 325 325 325 326 326 325 325 326 325 325 324 325 325 324 323 321 319 320 315 308 306 306 306 308 312 317 321 322 323 322 321 322 321 319 315 308 304 304 304 303 303 302 300 300 299 299 299 299
332 333 333 332 333 332 332 332 331 332 332 333 333 334 334 333 333 333 333 332 332 332 331 331 331 330 330 330 330 330 330 330 329 329 328 327 326 325 325 325 325 325 326 326 326 324 325 324 324 324 322 321 319 317 317 315 308 305 306 305 306 307 310 314 318 320 320 319 319 318 314 308 304 303 302 301 301 300 300 299 299 299 299 299 299
332 332 332 333 332 332 332 332 332 332 332 333 333 333 333 333 333 333 333 332 332 331 331 331 330 330 330 330 330 330 330 330 330 329 328 328 327 326 325 325 325 325 324 325 325 323 324 325 324 324 322 319 316 313 314 313 308 305 306 305 304 305 306 307 311 315 316 315 314 312 309 304 302 301 300 300 299 299 299 299 299 299 299 299 299
331 332 332 332 332 332 332 332 332 332 332 332 333 333 333 333 333 332 332 332 332 332 331 331 330 330 330 330 330 330 329 329 329 328 328 328 327 326 325 325 325 324 323 324 325 324 324 325 325 324 323 320 316 311 310 311 308 305 305 305 305 304 305 305 306 308 308 308 307 305 304 302 300 299 299 299 300 299 299 299 299 299 299 299 300
331 332 332 332 332 332 332 332 331 332 331 331 332 333 332 332 332 332 332 332 332 332 331 331 330 330 330 330 330 329 329 329 329 328 328 328 327 326 326 325 325 325 323 324 325 324 323 324 324 324 323 322 319 314 310 308 306 305 305 305 305 304 304 304 304 304 304 303 303 302 301 300 300 300 300 300 300 300 300 300 299 300 300 299 300
331 332 331 332 332 332 331 331 331 331 331 332 332 332 332 332 332 332 332 332 332 332 331 330 330 330 330 331 330 329 329 330 330 329 328 328 328 327 326 325 325 325 324 324 323 321 322 323 323 324 323 322 321 317 313 308 305 305 305 305 305 305 304 304 303 303 303 302 302 301 300 300 301 301 301 301 302 301 301 301 301 301 301 300 301
331 331 331 332 332 332 330 330 331 332 332 332 332 332 332 332 332 332 332 332 332 332 331 331 330 331 331 331 330 329 330 330 329 328 328 328 328 327 326 325 325 325 325 324 324 321 321 323 323 323 322 322 321 319 316 312 307 304 305 305 305 305 304 303 303 302 302 301 301 300 301 301 302 302 303 303 303 303 303 303 303 303 303 303 303
331 331 331 332 332 331 329 330 330 330 330 330 330 331 332 332 332 332 332 331 331 331 331 331 331 331 331 331 330 330 330 329 328 328 328 328 328 327 326 326 325 325 325 325 324 323 322 322 322 322 321 321 320 319 317 314 309 305 305 306 305 305 304 303 302 301 301 301 301 301 302 302 303 304 304 305 305 305 305 305 305 306 306 306 306
330 331 331 331 331 330 329 330 330 330 329 329 329 330 331 331 331 331 331 331 330 330 330 331 330 330 331 331 330 330 329 328 328 328 328 327 327 327 326 326 326 325 325 325 324 324 323 322 321 321 320 320 319 317 316 314 309 306 306 306 306 306 304 303 302 301 301 301 301 302 302 304 304 305 306 306 307 307 307 308 308 308 308 308 308
330 330 331 330 329 329 330 330 330 329 329 328 328 328 329 329 329 329 330 330 329 330 330 330 330 329 330 330 330 330 329 327 327 327 328 328 327 326 326 326 326 326 325 325 324 323 323 322 320 319 318 318 317 316 315 313 309 306 306 307 307 306 305 304 302 302 301 302 301 302 303 304 305 306 307 308 308 309 309 309 309 309 309 309 309
330 330 330 329 329 329 330 329 329 328 328 328 328 328 328 328 328 329 329 329 329 329 330 329 329 329 329 330 330 330 329 328 327 328 328 327 326 325 325 325 325 325 325 324 323 323 322 321 320 318 317 316 315 315 315 313 310 307 307 307 307 307 307 306 304 303 302 302 302 302 302 304 305 306 307 308 309 309 309 310 310 310 309 309 309
329 329 328 328 328 329 329 329 329 328 328 328 328 327 328 327 328 328 328 328 329 329 329 329 329 329 329 329 329 329 328 327 328 328 327 326 325 324 324 325 325 325 325 324 323 323 322 319 318 317 316 315 314 314 314 313 311 309 307 307 307 308 308 307 307 305 304 303 303 302 302 303 304 306 307 308 308 309 309 309 309 309 309 309 309
328 328 328 327 327 328 328 328 328 327 327 327 327 327 327 327 327 327 327 328 328 328 329 329 329 329 329 329 328 327 327 326 326 327 326 325 325 324 324 324 323 323 323 323 323 322 320 318 316 316 315 314 313 313 312 311 310 309 308 308 308 308 308 308 308 307 306 305 304 303 303 303 303 304 305 306 308 308 309 309 309 309 309 309 309
328 327 327 326 326 327 327 327 327 327 327 327 326 327 327 326 327 326 327 327 327 328 329 329 329 329 329 328 326 326 326 325 324 324 324 323 323 323 322 321 321 321 321 322 322 320 317 315 315 314 313 312 312 312 312 311 310 309 309 308 308 308 308 308 308 308 308 307 306 306 305 304 304 304 304 305 305 306 307 308 308 309 309 309 309
327 325 325 325 326 326 326 326 326 327 326 326 326 325 325 326 326 326 325 325 326 328 328 329 329 328 327 326 325 324 324 323 322 321 320 320 319 319 319 319 319 320 320 320 319 317 315 314 313 312 311 310 310 310 310 310 309 308 308 308 308 308 308 308 309 309 309 309 309 309 309 307 307 307 307 307 308 307 306 306 307 307 308 308 307
325 325 324 324 324 325 325 325 326 326 326 326 325 324 325 324 324 325 325 325 327 327 328 328 328 325 324 323 322 321 320 319 319 318 318 318 318 318 318 318 318 318 318 317 316 315 314 313 312 312 311 312 312 311 310 309 309 309 310 310 309 308 307 307 308 309 310 310 309 309 310 310 311 312 313 314 313 311 310 310 311 311 311 310 309
325 324 323 323 324 325 325 325 325 325 325 324 324 323 323 323 324 325 326 327 327 327 327 327 325 323 321 321 320 319 319 319 319 319 318 318 318 318 318 318 318 318 318 318 317 316 315 314 315 315 316 317 317 316 314 314 315 315 316 316 316 314 311 309 308 308 309 310 310 311 313 314 315 315 316 316 315 313 313 314 314 314 314 314 313
324 323 322 322 323 324 324 324 324 324 323 323 322 322 322 323 324 325 327 327 327 326 325 324 322 321 320 320 319 318 319 319 319 319 319 319 319 319 318 319 318 318 318 318 318 318 318 318 318 318 318 318 318 318 318 318 319 319 319 319 319 318 316 314 312 311 311 313 314 314 315 316 315 314 314 315 314 314 314 315 314 314 314 314 314
323 322 320 321 323 323 323 323 322 322 322 321 321 322 322 322 324 325 326 327 326 324 323 321 320 320 319 318 318 316 317 317 318 319 319 318 318 317 317 317 318 318 318 319 319 319 319 319 318 318 319 319 319 319 319 319 318 319 319 318 319 318 317 317 316 315 314 314 314 313 314 314 314 314 314 314 314 313 313 313 313 313 313 312 312
321 320 319 321 322 322 322 322 321 320 321 321 321 322 322 323 324 325 326 326 324 321 319 318 318 317 317 317 317 316 315 316 317 318 318 317 317 318 318 319 319 319 320 319 319 318 318 318 318 318 318 318 318 318 318 318 318 318 318 318 317 317 317 316 315 314 313 313 312 312 312 313 313 312 312 312 312 311 311 311 311 311 311 310 310
316 315 316 319 320 320 320 320 320 320 320 321 321 321 321 322 323 325 325 324 322 318 316 316 316 315 316 317 317 316 317 318 318 319 319 319 319 320 320 319 319 318 318 317 316 316 316 316 316 316 316 317 317 317 317 317 317 317 317 316 315 315 314 313 313 312 311 310 310 310 310 311 311 309 309 309 309 309 309 310 309 309 308 308 308
312 311 312 316 318 318 319 319 320 320 320 319 320 320 320 321 323 323 324 322 319 317 316 316 316 317 317 317 317 318 319 320 321 320 320 320 320 320 319 316 315 314 312 311 311 312 312 313 313 313 314 315 315 315 315 315 315 315 315 314 313 313 312 312 312 311 309 308 308 308 308 309 308 306 306 306 306 307 309 308 307 307 306 306 306
311 309 309 313 317 317 318 319 319 320 320 319 319 320 320 321 322 322 322 319 317 316 316 317 317 317 318 319 319 320 320 320 320 320 320 321 320 319 317 314 311 309 307 307 308 308 308 309 310 311 311 312 312 312 312 312 313 313 313 313 312 312 312 312 311 311 309 306 305 305 306 306 305 304 304 305 305 306 307 306 304 304 304 304 304
310 309 309 312 315 315 317 318 319 319 319 318 319 320 320 320 321 320 319 318 316 316 316 316 316 315 315 315 316 316 316 316 316 316 316 317 316 315 314 312 310 306 305 305 305 306 306 308 308 309 309 309 309 309 309 309 310 311 311 310 310 310 310 310 310 311 309 304 302 302 303 304 303 301 302 303 304 305 304 302 301 301 302 302 302
Wind_Speed
12 11 10 10 11 12 12 11 11 12 14 14 13 14 15 16 15 13 11 10 9 7 7 9 9 8 8 8 9 8 8 8 8 8 8 9 10 9 7 6 8 9 7 7 7 6 6 6 6 6 7 7 6 7 7 7 7 7 8 8 8 8 8 8 7 7 8 8 9 9 9 8 7 7 7 8 10 10 10 10 10 10 10 10 10
11 10 10 10 11 12 11 11 12 13 14 14 13 14 15 15 14 12 11 9 8 7 6 7 8 8 7 7 8 9 9 8 8 9 9 9 9 8 6 5 9 9 7 6 6 6 6 6 5 5 5 6 5 6 7 7 7 7 7 8 8 8 8 8 8 8 8 8 9 9 8 7 7 8 8 9 12 13 12 11 11 12 13 13 12
11 11 11 11 11 11 11 10 11 14 15 14 13 13 14 14 14 12 10 8 7 6 6 6 8 8 7 7 8 9 9 9 9 10 9 9 8 7 6 5 8 9 7 6 5 5 5 4 4 4 5 5 5 5 7 7 6 7 7 8 8 8 8 8 8 8 8 8 8 8 8 9 8 9 10 12 13 12 11 11 12 13 15 17 17
12 12 12 12 11 11 10 10 10 12 15 15 14 14 14 14 13 11 9 7 7 6 5 6 7 8 8 8 10 10 9 10 10 11 10 9 8 7 7 8 9 9 7 6 5 5 4 4 4 4 4 4 4 4 6 6 5 6 7 8 8 8 8 8 7 8 8 8 8 8 9 9 9 10 11 13 13 12 12 12 13 15 17 18 18
13 12 12 12 12 11 11 10 10 11 13 14 15 15 15 14 13 11 9 8 6 6 7 7 8 9 9 10 11 10 10 10 11 11 10 9 8 7 8 9 9 8 7 6 6 6 4 4 3 3 3 4 4 4 5 6 6 6 7 8 8 7 8 8 8 8 8 8 8 8 8 9 9 10 11 12 13 14 14 14 15 15 16 16 16
15 14 14 14 13 13 12 11 10 9 10 12 14 15 15 15 13 11 9 8 6 7 7 9 10 10 11 12 11 11 11 11 11 11 9 8 8 8 8 8 7 7 6 6 7 6 5 5 3 3 3 4 4 3 5 7 6 5 6 6 6 7 8 8 8 8 7 8 8 9 9 9 10 11 11 12 12 14 14 14 14 14 15 15 15
16 15 15 15 15 14 13 12 11 10 10 10 12 13 15 14 13 11 10 8 7 7 8 9 10 11 12 13 12 12 12 11 11 10 9 8 8 8 8 7 7 6 6 7 7 6 5 4 3 4 5 4 3 4 5 6 4 4 5 6 5 6 7 7 7 7 7 8 8 9 9 10 11 11 11 12 12 13 13 13 13 13 15 15 15
17 16 17 17 16 15 13 15 15 12 11 11 12 13 14 13 11 10 10 9 9 9 10 10 11 11 12 13 14 13 13 12 11 11 9 8 8 8 8 7 6 6 6 7 6 5 4 4 2 4 6 5 5 5 5 5 2 3 5 4 3 5 7 7 6 6 7 8 8 8 9 9 10 11 11 12 12 13 12 13 13 13 14 14 15
18 17 18 17 16 15 13 15 16 13 13 13 13 14 14 13 11 10 10 10 11 11 11 11 10 10 10 12 14 14 13 12 11 10 10 9 9 8 7 6 6 6 7 6 5 3 3 4 4 5 7 7 7 6 6 5 3 4 5 3 3 5 7 6 5 6 6 7 7 8 8 9 10 10 11 11 12 12 12 13 14 14 14 15 15
18 18 19 17 16 15 13 15 15 13 14 14 14 16 16 14 12 11 10 11 12 12 11 11 11 10 10 11 13 14 12 12 11 10 10 10 9 9 7 7 6 6 7 6 4 3 2 4 5 6 7 8 8 7 6 6 5 5 4 3 4 6 6 6 5 6 6 6 6 6 7 8 9 9 10 10 11 11 11 11 12 13 14 14 14
18 18 19 19 17 15 13 14 14 15 16 14 14 17 16 14 13 13 12 11 11 12 12 12 13 13 12 12 13 13 13 12 12 11 10 10 9 9 8 7 7 7 7 6 4 3 2 3 5 6 7 7 8 7 6 5 5 5 5 4 4 5 6 4 3 6 5 5 5 6 6 7 8 9 9 9 9 10 11 11 13 14 14 14 14
19 20 22 21 17 14 13 13 13 17 19 17 16 17 16 15 14 14 14 12 11 12 13 15 16 14 12 12 12 12 12 11 11 11 10 10 10 10 8 8 7 7 7 6 5 4 3 4 5 6 6 6 6 6 6 5 4 3 3 4 3 4 4 2 2 4 5 4 5 5 6 7 8 8 8 8 9 11 12 13 14 15 14 14 13
23 24 24 22 18 16 15 14 14 17 20 19 18 17 16 16 14 15 15 15 14 12 14 18 18 14 11 10 9 8 8 7 9 10 10 10 10 10 9 8 7 6 6 6 6 5 4 4 5 6 5 4 3 3 3 3 3 3 2 1 2 3 3 2 2 2 3 5 5 6 7 7 8 8 8 9 11 12 12 12 12 12 12 11 9
24 25 26 23 19 17 17 16 15 17 20 19 16 16 17 16 16 15 15 17 17 15 17 18 15 12 10 9 8 6 4 3 5 8 9 11 12 11 10 9 7 6 6 5 6 5 5 5 6 7 5 3 1 1 1 0 1 2 1 2 3 4 2 2 3 2 3 6 6 7 8 8 9 9 10 10 11 10 9 9 10 9 8 8 7
23 25 26 24 19 17 18 17 16 18 20 18 16 16 17 16 17 17 17 18 17 18 20 16 15 15 11 6 4 4 3 2 4 4 4 8 12 11 10 9 8 7 6 6 5 5 5 5 5 6 6 4 3 2 2 1 1 1 1 2 2 4 5 5 4 3 4 7 7 8 9 10 11 10 10 9 8 7 6 6 6 7 6 6 6
24 26 25 21 18 18 18 18 18 19 20 19 17 18 16 16 18 19 20 19 17 20 19 15 19 19 9 3 2 2 2 3 5 4 3 7 9 10 10 10 8 8 7 7 6 5 5 5 4 5 5 4 4 3 3 2 2 2 2 2 2 2 5 7 6 4 4 7 7 8 10 11 9 8 6 6 5 4 4 4 6 6 6 5 5
26 25 22 19 18 20 19 18 19 19 20 20 18 18 16 17 18 20 21 19 19 22 18 15 20 18 10 6 3 1 2 5 7 4 5 7 7 7 8 9 8 7 7 7 7 6 5 5 5 4 4 4 4 3 3 3 3 3 3 3 3 2 3 7 7 5 5 6 6 8 9 8 6 5 4 4 3 3 4 6 6 6 5 3 3
25 22 20 18 18 20 18 17 20 21 21 19 18 18 18 18 20 20 21 20 20 22 19 18 20 15 10 8 4 3 5 9 6 2 4 5 4 5 6 5 7 7 8 8 7 7 6 6 6 5 5 4 4 4 4 5 4 4 4 5 6 5 4 7 8 6 6 5 7 8 7 6 5 4 4 3 3 5 6 4 4 4 3 2 1
22 20 18 17 18 17 17 18 21 22 21 19 18 18 19 19 20 20 20 20 20 21 21 21 20 15 11 9 4 3 10 12 7 3 4 4 5 6 5 4 6 8 8 8 8 8 6 6 6 5 5 4 5 5 5 6 5 5 5 5 6 7 6 7 9 9 7 5 7 7 6 5 5 4 4 4 5 6 4 2 2 3 3 2 2
20 17 16 17 18 18 18 19 21 21 21 20 19 18 18 19 19 19 20 21 21 21 22 22 21 18 14 9 3 4 12 13 10 8 5 3 4 4 5 5 6 7 7 7 7 7 5 5 5 4 4 4 5 5 5 5 5 6 6 5 6 7 7 7 8 11 10 7 7 7 6 6 6 6 7 6 5 3 1 1 2 3 3 3 3
18 17 18 19 19 19 18 18 19 19 19 20 19 17 17 19 20 20 20 22 21 21 21 22 22 21 17 11 5 8 12 9 9 10 6 4 5 3 5 5 4 6 6 6 6 5 5 4 4 3 3 3 4 5 5 4 5 5 5 5 4 7 8 7 8 11 11 10 9 8 6 5 6 9 7 4 3 1 0 1 2 3 4 4 4
16 18 19 19 16 17 17 17 18 19 19 19 19 19 18 19 21 21 21 22 22 21 19 20 22 21 19 15 10 12 11 6 9 10 6 5 4 4 7 6 4 5 6 6 5 5 5 3 2 1 2 3 4 4 3 3 3 3 3 3 4 5 8 7 8 10 11 10 10 8 5 5 8 7 4 3 3 2 2 2 3 4 4 4 4
16 16 16 15 15 16 16 17 18 20 21 20 20 21 20 20 21 22 22 21 21 20 19 19 20 20 19 17 15 14 11 8 12 14 9 6 5 5 8 7 5 5 6 6 6 5 5 3 1 1 2 3 3 2 1 1 0 1 1 3 4 5 6 5 6 9 10 10 10 7 6 9 9 4 3 4 4 3 3 4 4 4 4 4 4
16 16 15 13 14 16 17 17 18 20 21 21 20 21 21 21 21 22 21 19 20 19 19 19 19 19 19 19 17 14 12 10 11 16 13 10 9 8 8 8 5 4 6 7 6 6 5 3 1 1 3 4 4 2 3 3 3 2 1 3 4 4 6 5 4 7 8 7 6 6 7 9 6 4 5 5 4 4 4 4 4 4 4 4 4
16 16 15 14 15 17 18 18 19 20 20 20 20 20 21 21 20 20 19 18 19 18 18 18 19 18 19 20 18 14 13 11 9 13 14 11 12 9 8 9 5 3 6 7 6 5 5 3 1 1 2 4 4 2 3 3 3 4 3 3 4 5 6 6 6 7 6 2 6 8 9 7 4 4 6 5 5 5 5 4 4 5 5 5 5
18 17 16 15 16 17 18 19 19 19 19 20 21 20 20 20 19 19 18 17 17 17 17 18 18 17 17 19 19 14 13 11 9 11 14 13 12 12 11 8 5 5 5 5 6 4 4 4 3 1 1 3 3 2 2 2 2 3 3 4 4 5 6 6 7 7 5 3 7 8 8 5 5 4 6 4 5 5 4 4 5 5 5 5 5
20 19 19 19 18 18 18 18 19 19 20 20 20 19 19 19 18 18 18 17 17 17 17 17 17 17 16 17 17 14 12 11 10 10 13 13 13 16 17 10 4 4 4 3 5 5 5 5 4 3 1 1 2 1 1 1 1 2 3 3 4 5 6 6 6 7 6 6 7 8 7 6 5 4 4 4 4 4 4 5 5 5 5 5 5
20 20 21 21 20 19 18 18 18 19 20 20 20 20 20 19 18 18 18 18 18 17 17 17 16 15 15 16 15 13 11 11 11 9 11 12 12 16 19 16 9 4 3 3 4 5 7 6 4 4 3 2 1 1 1 2 0 1 2 3 3 4 6 6 7 7 7 8 8 8 6 4 4 4 4 4 5 5 5 6 6 6 5 5 6
20 20 21 21 20 19 18 18 17 19 20 21 21 20 20 19 18 18 18 17 17 16 15 15 14 14 14 14 13 12 10 10 11 10 10 11 12 14 18 20 15 8 5 5 5 7 8 7 6 5 4 4 3 3 3 2 2 2 2 3 3 3 4 5 7 7 6 7 7 6 4 3 4 5 5 5 6 6 7 7 7 7 6 6 6
20 20 20 20 20 19 19 20 19 19 20 21 20 20 20 19 18 18 18 17 16 15 14 13 12 12 12 12 12 10 10 10 10 9 10 11 13 15 17 20 18 11 8 6 5 9 10 9 9 7 5 5 4 5 5 4 4 4 3 3 3 3 2 3 5 6 6 5 6 6 5 5 6 6 6 6 7 7 7 7 8 8 7 7 6
20 21 21 21 21 20 19 20 19 18 20 21 19 19 18 19 19 18 17 17 16 15 13 12 11 11 11 11 11 10 9 8 8 8 10 11 13 14 17 20 17 11 10 7 3 8 13 11 10 9 6 5 5 5 6 6 5 5 5 4 4 4 4 4 4 6 6 6 6 7 7 7 6 6 7 7 7 7 7 7 8 8 8 8 7
21 22 22 22 22 21 19 19 18 18 20 20 17 17 18 18 18 17 16 16 15 14 13 12 11 11 12 11 10 9 8 8 7 7 9 11 12 14 17 19 16 11 9 6 3 6 13 12 9 9 8 6 5 6 6 6 6 6 6 5 5 5 5 5 5 6 7 7 7 7 7 7 7 7 7 7 7 7 7 8 8 8 9 8 8
22 22 23 23 23 21 20 18 18 18 19 18 16 16 17 17 16 15 15 15 14 13 13 13 12 11 11 11 10 9 8 7 7 8 10 11 13 14 17 18 16 12 9 7 5 6 11 13 10 9 9 8 7 7 7 7 7 7 7 7 6 6 6 6 6 7 7 7 7 7 7 7 7 7 8 7 8 8 8 9 9 9 9 9 9
22 22 23 24 24 22 20 18 17 16 16 16 15 16 17 16 16 15 14 14 14 13 13 12 12 12 11 10 10 10 9 8 8 9 11 13 14 15 18 18 17 14 11 8 7 7 9 12 12 10 10 10 9 8 8 7 7 7 8 7 7 7 7 7 7 7 7 7 8 8 8 8 8 8 8 8 9 9 9 10 10 10 10 10 10
22 23 23 24 23 22 20 18 17 16 15 15 15 16 17 16 16 15 14 14 13 13 13 12 11 11 11 10 10 10 9 8 9 10 11 12 13 14 17 18 17 15 12 10 8 7 8 10 12 12 11 10 9 8 7 6 7 8 9 8 8 8 8 8 8 8 8 8 9 9 9 10 10 10 10 10 10 10 11 11 11 12 12 12 12
23 23 23 23 22 20 20 18 17 17 17 16 15 16 16 16 15 15 14 13 12 12 11 11 10 11 11 11 11 11 10 10 10 11 11 11 12 13 15 17 17 15 13 12 11 9 8 9 11 11 11 9 8 8 7 6 8 9 10 9 9 9 9 9 9 9 9 9 10 11 11 11 11 12 12 12 12 13 13 13 14 14 14 14 14
24 23 22 22 21 20 20 19 18 18 17 17 16 15 15 15 13 13 13 12 11 10 9 9 10 10 11 11 11 11 11 11 12 12 12 11 11 12 13 14 15 14 14 14 13 11 10 10 10 11 11 10 10 9 8 8 9 10 10 10 9 9 9 10 11 10 10 11 12 13 13 13 14 14 14 14 15 15 16 17 17 17 17 17 18
25 23 22 22 21 20 21 20 18 17 17 17 16 15 15 14 13 12 13 12 10 9 9 10 9 10 10 11 11 11 11 12 13 12 11 11 11 12 12 11 12 13 14 15 14 13 11 10 10 10 11 12 12 11 10 10 11 11 11 11 11 11 11 11 12 11 12 13 14 14 15 16 16 16 17 17 18 18 19 20 20 20 21 21 21
25 24 23 22 21 21 22 20 18 17 17 16 15 15 15 14 13 13 13 12 10 10 10 10 9 9 9 9 10 11 12 12 12 12 11 10 11 12 12 11 10 11 14 15 15 13 12 10 10 10 10 12 13 12 11 11 12 12 12 13 14 13 12 13 13 13 13 14 15 16 17 18 19 19 20 20 21 22 22 23 24 25 25 25 25
23 24 23 22 21 22 22 20 18 17 17 16 16 15 15 14 13 13 13 12 11 10 11 11 10 9 8 8 9 11 11 12 13 13 11 10 11 11 12 12 11 11 14 15 14 12 12 11 10 9 10 11 13 12 12 11 12 13 12 13 14 15 14 14 15 15 15 16 17 18 19 20 21 22 23 24 25 25 26 27 28 28 29 29 30
23 23 23 23 22 23 21 19 17 17 17 16 16 15 14 14 14 13 12 12 12 12 13 12 11 9 9 9 10 11 11 12 12 11 10 9 9 10 12 11 10 10 11 12 12 11 10 10 9 8 9 11 12 12 12 12 11 11 10 10 12 14 15 16 17 16 16 17 18 19 20 21 22 24 25 27 28 28 30 31 32 33 33 34 34
24 24 24 23 22 21 19 17 17 17 17 16 16 14 14 14 14 13 12 12 13 14 14 14 13 11 11 11 12 12 11 11 10 9 9 9 7 6 7 7 7 7 8 9 9 8 8 8 8 7 7 7 8 9 10 10 10 10 10 10 12 13 15 16 16 14 12 13 13 15 17 16 17 20 22 24 25 26 28 29 29 30 30 30 31
23 22 23 23 22 19 17 16 17 17 17 17 16 15 14 14 13 13 13 14 15 15 16 16 15 14 13 14 14 14 13 13 13 14 14 15 15 14 13 12 9 8 8 7 7 5 5 5 4 3 2 0 1 4 6 7 8 8 9 9 11 12 12 12 13 11 8 9 10 14 16 15 14 16 18 19 21 20 19 19 19 20 20 20 21
24 22 22 23 21 19 18 17 17 17 17 16 16 15 15 14 12 12 13 15 16 17 17 17 17 17 18 19 20 19 18 18 18 18 19 18 17 16 15 14 12 10 9 8 8 7 6 6 6 6 6 6 5 2 1 2 3 4 5 6 8 9 10 11 12 10 8 9 11 13 17 17 15 15 17 18 18 17 15 15 16 17 18 20 22
25 23 22 23 21 20 20 18 18 18 17 16 16 15 15 14 13 13 14 16 17 18 19 19 19 21 22 23 24 23 22 21 20 19 18 18 17 16 14 13 12 11 10 10 10 10 9 8 9 8 7 5 3 1 1 2 3 4 5 6 6 7 8 9 10 10 10 11 11 11 15 16 15 15 16 17 17 16 15 15 15 15 16 18 20
24 23 23 23 22 22 20 18 18 18 17 16 16 16 16 15 14 14 16 18 20 21 21 22 23 24 23 22 22 23 22 21 18 16 15 15 15 15 14 13 13 12 11 10 9 8 8 7 6 6 5 3 2 2 3 3 4 4 4 5 5 5 5 6 7 8 8 10 9 8 10 12 12 13 14 14 14 15 14 14 14 13 14 14 14
22 22 23 24 23 22 21 19 19 18 17 17 16 15 16 16 15 17 19 20 22 23 23 24 24 23 22 21 20 19 19 18 16 15 15 15 15 14 14 13 12 11 9 8 7 6 6 6 6 6 4 3 3 3 4 4 4 4 4 4 4 4 5 5 5 4 3 5 5 4 5 7 9 10 11 12 12 13 13 13 13 13 13 14 14
19 19 21 23 23 22 21 20 20 19 18 17 16 15 16 17 18 19 21 22 23 23 22 22 21 21 20 19 19 19 19 18 17 15 14 14 14 14 14 14 12 11 10 10 8 7 6 6 6 6 5 4 3 2 2 2 3 2 2 2 1 2 3 2 0 2 2 3 5 5 5 7 9 10 11 12 12 13 12 11 12 13 15 16 16
18 17 18 23 24 22 22 21 20 20 18 17 16 15 15 17 19 21 23 23 23 22 19 18 19 19 19 18 18 19 19 18 17 15 13 12 13 14 15 15 14 13 13 13 11 10 9 9 8 8 7 6 5 4 3 3 3 2 2 2 3 4 5 4 3 3 4 4 6 8 8 8 10 13 15 14 12 11 10 11 14 16 17 18 18
20 18 19 23 25 23 22 21 20 20 19 17 18 18 17 18 20 22 24 24 23 23 21 18 17 17 18 17 16 16 17 17 16 14 12 11 12 14 15 15 16 15 15 13 11 10 9 8 9 9 9 9 8 7 7 6 5 5 5 6 7 7 7 6 5 3 3 5 10 11 10 8 11 15 16 14 12 10 11 15 18 19 18 18 18
23 20 20 24 26 23 22 22 22 21 20 19 19 19 19 20 21 22 25 25 25 25 24 22 19 17 17 17 15 14 15 15 15 14 11 10 11 13 12 13 15 16 14 11 9 9 8 9 10 10 11 11 10 10 10 10 9 10 10 11 10 9 9 8 6 4 2 6 13 14 11 9 12 15 15 11 8 7 12 17 19 19 19 19 19
Wind_Direction
195 195 198 203 206 207 204 195 186 187 190 186 178 172 172 170 166 159 153 153 149 143 142 142 144 149 155 153 152 152 148 147 148 151 145 138 139 144 158 149 122 121 121 115 113 109 100 98 96 92 93 93 91 88 87 85 83 85 89 87 83 83 87 85 84 92 94 89 90 92 86 78 72 69 68 66 67 72 74 71 70 67 62 60 61
203 205 208 208 207 206 207 205 199 198 198 196 187 177 175 176 176 170 165 162 159 153 150 153 152 154 164 166 164 161 157 156 159 160 153 147 147 152 161 140 127 130 120 114 114 111 108 104 98 90 93 98 92 86 89 88 82 83 86 88 87 83 84 82 82 87 91 93 92 87 83 75 68 69 68 70 76 78 77 75 71 65 60 59 63
212 215 215 213 209 205 204 201 200 201 201 202 196 186 182 182 183 182 177 175 172 165 160 166 162 158 170 179 178 170 163 164 165 165 161 159 161 160 159 141 133 130 122 127 124 110 108 109 107 104 104 103 97 91 94 95 89 88 89 91 90 85 84 83 83 84 84 88 89 85 79 72 72 77 77 80 83 82 80 76 69 67 68 67 69
216 215 217 218 214 209 206 200 199 201 200 203 201 194 192 189 190 192 192 191 185 176 172 177 172 165 175 188 187 177 169 169 169 170 170 168 165 163 155 137 131 134 141 150 129 108 100 104 114 120 120 105 97 96 100 105 98 90 85 84 86 87 87 83 83 85 81 80 82 85 83 76 76 81 82 84 84 82 83 80 75 76 76 74 72
217 216 216 217 216 211 207 201 199 199 200 202 202 199 198 196 197 201 203 203 193 180 175 171 172 174 182 191 189 179 175 173 172 175 174 168 161 159 150 135 129 134 146 149 130 119 104 94 107 121 112 99 100 91 100 112 103 92 87 83 85 87 89 84 81 82 81 79 79 82 84 84 82 82 84 86 87 83 81 80 78 78 78 79 77
218 218 217 215 216 211 205 202 200 199 198 200 202 201 198 200 203 206 208 206 192 177 170 165 171 181 185 190 189 182 179 176 176 179 175 166 160 156 150 141 136 133 140 144 136 133 117 102 112 127 113 101 110 94 94 109 105 99 98 93 92 92 92 89 85 85 82 80 78 75 76 83 87 87 86 85 86 83 80 81 79 78 79 80 80
222 222 220 219 217 213 208 201 198 201 202 202 205 202 199 201 206 210 206 194 180 168 164 166 175 186 187 187 186 183 181 180 179 178 175 168 161 158 154 148 146 146 152 152 145 141 138 130 116 131 148 139 116 102 92 102 103 97 101 98 95 97 97 94 93 89 85 85 83 80 81 86 88 88 88 86 86 84 82 81 80 79 80 82 82
225 227 224 224 221 217 214 204 196 198 209 212 211 207 202 203 210 216 207 187 180 173 169 175 181 187 187 183 182 183 184 184 181 177 173 171 165 162 160 155 154 158 164 159 148 141 144 158 127 104 136 143 122 116 105 107 102 87 100 102 94 99 94 89 92 91 88 91 90 90 88 88 89 88 91 91 89 87 84 83 84 83 84 89 89
220 225 227 227 225 223 217 206 199 199 210 212 212 208 203 208 211 211 209 198 190 183 175 176 179 181 176 173 178 182 186 189 186 180 176 173 170 168 164 163 161 163 173 168 147 133 122 148 141 98 104 112 112 110 98 100 103 100 107 90 77 100 104 99 99 97 97 98 96 98 96 92 94 92 91 93 92 91 88 86 87 85 86 89 86
217 221 227 227 226 224 214 208 205 204 212 213 211 209 206 212 207 196 203 207 200 190 180 171 165 164 159 163 177 183 190 196 192 187 183 177 175 175 169 169 169 168 177 177 159 150 131 136 138 114 100 97 102 105 91 82 80 92 112 100 78 90 107 116 117 112 109 110 107 103 102 100 99 97 95 94 94 93 93 92 88 86 87 86 84
220 219 225 225 221 218 213 212 209 204 212 216 210 207 207 207 202 195 195 199 202 190 172 158 150 152 153 161 176 185 193 200 198 192 188 185 182 180 178 177 177 176 183 191 185 170 163 155 142 129 116 102 99 102 97 91 79 74 86 98 87 80 98 114 122 127 125 115 117 110 106 109 105 103 102 99 100 98 94 90 86 85 85 86 88
225 222 225 222 214 215 219 219 213 205 210 214 207 204 204 201 201 200 190 180 182 175 160 150 142 140 149 161 176 191 195 195 197 196 192 193 190 187 187 185 185 187 195 203 203 192 179 175 165 150 133 114 103 100 104 118 123 101 80 90 96 92 108 124 101 125 139 126 122 118 115 117 112 108 107 105 103 98 92 88 86 88 88 88 87
228 223 224 219 210 214 221 221 218 211 213 213 205 203 205 203 199 195 189 174 163 160 158 149 136 131 136 140 150 173 184 183 192 199 200 201 199 197 195 192 192 194 202 207 207 205 194 191 189 176 153 127 111 101 115 130 134 148 156 169 162 120 103 126 128 125 147 142 132 128 124 121 116 112 111 107 101 96 93 90 89 90 90 86 79
231 225 224 219 210 215 221 221 215 210 215 212 202 204 205 202 193 182 179 172 163 162 162 151 139 141 138 123 116 121 120 132 170 191 202 204 202 202 201 201 203 203 209 212 209 208 198 195 201 198 192 184 164 110 147 172 125 145 171 229 201 178 152 143 164 173 143 144 139 133 129 120 113 109 107 104 101 100 96 91 89 88 86 82 80
236 232 230 224 216 219 224 220 209 204 211 205 193 199 200 196 194 185 174 166 163 167 166 158 149 145 137 129 125 119 112 113 140 159 185 194 196 203 209 210 214 217 216 217 213 207 195 187 199 211 220 232 239 246 250 235 227 215 216 263 259 205 189 174 176 189 150 136 135 135 131 121 114 109 108 109 109 105 96 91 92 90 88 86 89
233 230 230 225 219 223 224 217 210 209 212 206 197 199 200 194 192 189 179 165 162 171 174 169 160 152 137 115 114 139 187 163 146 148 160 171 184 200 213 217 221 223 218 222 220 205 196 192 202 216 223 237 244 245 254 254 245 244 238 260 298 244 192 181 184 203 175 139 130 136 132 126 120 114 117 120 115 105 93 92 97 104 105 98 94
228 226 223 218 219 223 223 220 218 217 217 214 208 206 208 202 194 192 190 182 173 174 179 180 174 169 157 138 130 197 208 155 149 157 165 168 173 190 212 222 223 224 223 226 225 213 209 212 220 226 227 235 241 248 254 259 262 254 251 262 268 260 216 193 185 195 195 162 142 143 136 133 135 131 137 137 125 120 113 106 109 121 125 109 90
228 227 219 217 218 217 217 219 218 215 215 217 214 209 208 206 202 200 201 199 186 177 180 182 182 183 172 162 167 190 172 158 158 154 155 169 179 193 217 221 212 220 230 231 227 222 221 225 230 228 232 238 240 252 260 260 269 270 267 269 260 254 232 203 186 183 204 187 159 160 151 151 164 154 152 152 127 125 123 112 114 131 136 119 84
232 227 217 217 217 211 209 213 213 214 215 218 217 210 206 207 209 207 207 207 197 186 182 180 184 189 184 173 162 172 172 169 171 156 145 168 179 194 221 222 214 225 233 231 221 222 227 229 232 228 235 251 258 264 270 267 266 268 267 264 255 247 228 211 194 185 204 200 169 175 173 170 180 167 151 145 134 134 130 88 90 120 133 130 106
236 228 217 215 216 211 210 212 213 216 218 218 218 212 209 209 210 208 209 212 209 200 190 184 186 190 187 181 162 171 178 180 182 164 143 157 168 187 210 214 228 233 230 218 208 216 227 227 231 241 255 272 283 279 277 271 253 247 252 251 247 237 225 222 201 185 193 201 191 194 193 187 184 165 148 142 144 153 157 48 94 115 120 119 109
232 226 214 209 213 211 212 216 215 217 220 221 219 215 213 214 212 209 210 212 211 208 201 195 195 194 191 189 175 168 176 185 182 160 135 151 171 180 178 182 209 215 210 201 195 204 213 225 242 260 282 295 301 293 282 270 250 245 247 242 242 230 218 219 204 189 191 201 203 205 213 205 172 155 149 151 151 159 190 131 130 125 120 120 112
229 225 210 202 209 210 211 216 214 216 221 222 221 217 214 217 218 215 212 211 208 207 209 209 205 201 198 195 180 169 169 172 174 165 137 139 163 166 169 176 179 177 191 193 193 209 216 232 259 286 331 332 326 311 295 277 256 260 252 226 223 216 209 213 211 198 194 203 206 208 214 182 156 154 169 173 149 144 170 156 144 137 131 126 116
227 227 216 205 211 213 213 216 217 218 219 219 220 218 217 218 220 218 213 211 210 209 212 214 210 207 206 205 201 193 190 195 190 183 168 147 147 154 172 181 165 158 182 192 198 215 224 235 254 4 0 357 353 347 11 37 45 277 241 200 193 192 191 201 210 199 200 211 212 210 192 160 155 170 190 163 144 153 164 153 150 148 140 129 116
227 225 221 214 215 219 220 219 218 218 217 216 217 218 220 218 217 218 216 212 213 213 214 216 215 213 213 214 216 216 217 226 212 196 187 169 151 144 160 169 156 156 182 194 208 213 215 227 244 0 4 13 21 47 74 66 71 77 111 164 167 171 172 173 184 199 218 221 191 174 157 152 162 171 159 149 142 158 166 162 165 160 149 134 119
229 224 219 215 218 223 223 220 217 216 216 216 216 218 221 219 215 216 215 212 212 214 217 219 220 223 223 220 218 222 226 233 226 202 191 170 149 138 148 165 162 146 173 194 207 206 206 216 229 320 359 17 29 57 75 66 74 89 102 137 151 152 158 166 178 201 229 186 126 137 145 159 200 174 153 154 156 169 182 182 182 172 158 140 127
230 225 219 214 218 224 224 221 217 217 217 216 216 219 218 217 215 213 212 211 211 213 218 221 224 229 229 223 219 221 224 227 224 205 193 180 163 149 146 158 162 135 149 193 199 198 209 217 223 240 346 10 21 40 57 45 67 107 107 119 139 139 146 166 176 185 208 161 134 147 162 194 235 181 158 169 175 191 205 197 192 180 165 150 140
232 225 220 214 213 218 223 224 220 218 216 215 215 215 213 212 212 213 210 209 211 214 218 222 227 229 228 224 220 220 223 222 220 212 203 200 188 171 160 153 149 140 144 190 201 210 221 226 232 232 250 347 5 19 342 344 45 126 121 119 134 141 147 161 169 173 192 185 167 177 194 225 243 195 176 193 201 218 222 209 204 192 181 168 157
237 229 223 216 210 209 217 223 225 221 215 213 213 208 206 208 208 208 207 207 210 212 216 221 225 227 223 219 218 219 220 220 218 214 209 210 207 191 177 167 157 149 161 185 197 216 227 233 233 230 228 235 225 210 254 297 278 140 131 132 136 148 153 155 163 176 192 192 191 203 215 234 236 211 205 215 216 222 220 215 211 203 195 181 172
241 234 225 218 211 207 210 214 220 225 215 207 208 205 203 206 205 204 204 206 207 209 213 217 217 218 216 213 214 216 214 215 217 215 211 212 211 205 197 186 171 153 161 195 203 207 219 226 222 220 219 217 209 197 213 247 232 195 157 145 144 150 152 151 161 180 193 192 199 216 227 233 223 213 214 216 215 217 216 214 212 208 203 191 186
241 235 227 218 212 209 211 209 209 220 218 206 202 204 204 205 205 205 206 206 206 208 210 212 212 212 212 210 210 213 213 214 216 216 215 216 213 211 209 200 186 170 165 177 200 204 207 215 215 211 207 213 215 197 201 220 220 211 193 172 166 165 169 166 168 182 195 200 209 220 225 224 213 206 209 211 212 214 213 212 212 211 207 204 202
236 232 228 222 215 210 210 207 199 209 220 212 202 203 204 203 203 204 206 205 205 207 208 210 211 208 206 206 205 207 211 211 209 212 212 212 213 213 209 202 199 195 179 159 166 202 202 209 214 211 206 213 224 212 205 213 218 217 208 197 195 192 196 201 196 198 204 210 216 218 219 215 209 208 211 213 215 215 215 215 216 215 215 217 218
230 229 228 223 216 209 204 202 196 201 215 214 205 203 203 202 201 200 202 203 204 207 208 207 206 203 203 203 203 205 205 202 198 199 199 201 207 213 210 204 203 207 195 171 137 182 196 205 213 216 215 217 230 230 219 216 218 220 220 218 216 212 213 219 221 218 216 219 220 219 216 211 210 214 215 218 220 220 221 221 221 222 224 227 228
226 225 225 219 212 206 199 194 191 197 209 210 205 204 203 204 204 202 203 204 205 206 204 201 198 197 199 198 199 203 200 198 198 194 192 194 201 208 208 205 204 206 205 194 160 158 188 202 209 216 219 222 232 235 228 223 220 222 228 233 231 227 225 227 231 232 228 226 224 220 218 215 216 219 221 225 227 227 227 226 227 228 231 234 237
223 220 220 214 208 203 196 187 181 189 203 208 207 205 205 207 207 204 205 205 204 204 201 199 197 195 197 197 198 199 196 200 203 197 192 194 200 204 203 204 206 208 211 206 186 168 181 199 207 213 217 222 231 234 232 227 225 230 238 244 247 245 237 232 232 233 231 228 225 223 223 223 225 227 229 232 234 235 234 233 234 234 237 240 241
219 216 215 211 206 202 194 184 178 185 198 206 208 208 208 209 207 205 206 205 204 202 199 199 199 198 196 194 196 197 194 198 200 194 191 194 199 200 199 202 207 210 214 214 206 194 189 199 210 216 217 220 227 232 234 231 229 235 243 251 257 259 255 247 238 233 232 231 229 227 226 228 231 234 237 240 241 242 242 242 241 241 243 245 246
215 213 212 208 205 201 193 184 181 187 195 199 203 207 207 206 206 204 202 201 202 203 200 199 199 198 195 192 193 194 191 192 194 192 190 194 198 196 197 203 208 212 217 220 223 221 214 212 216 220 220 221 227 229 231 235 233 234 242 252 260 264 265 260 251 243 237 236 236 234 232 234 236 238 240 242 244 245 246 247 247 247 248 249 251
211 208 205 202 202 201 195 188 185 189 195 198 201 203 202 202 203 201 197 195 196 197 197 201 201 197 194 191 189 190 188 187 190 193 194 195 196 194 196 203 208 212 217 223 228 231 231 228 224 223 220 216 220 225 226 229 231 233 239 249 258 263 266 262 257 252 247 245 245 242 241 241 242 244 245 246 248 248 250 251 252 252 254 255 257
206 200 197 197 198 200 199 193 187 189 194 199 204 204 201 201 200 196 192 191 191 189 190 197 200 196 191 188 188 191 192 190 189 193 196 197 197 197 200 206 211 214 218 222 225 229 235 237 231 229 225 218 218 223 224 226 230 235 241 249 256 260 264 267 265 261 258 255 254 251 249 250 250 252 252 253 254 255 256 257 258 259 259 260 262
199 195 194 196 199 201 200 194 190 193 195 198 205 207 203 200 196 192 191 190 188 184 186 192 193 190 187 184 188 192 193 193 194 193 194 194 197 201 206 211 216 219 221 221 222 227 233 234 230 229 228 222 219 221 225 228 233 239 244 250 256 260 264 270 274 272 268 264 262 259 258 257 257 257 258 258 259 260 261 262 263 264 264 266 267
199 196 194 195 196 197 196 193 193 196 197 200 205 205 200 198 195 193 191 191 187 182 184 189 187 185 185 185 188 189 188 190 191 191 192 195 200 208 216 223 228 227 226 223 221 224 226 224 223 226 227 224 220 218 222 226 234 243 249 256 263 270 273 276 279 278 275 272 270 267 265 263 263 264 263 263 264 264 265 266 267 267 269 269 270
198 195 192 193 194 192 190 189 191 196 199 202 203 200 198 197 196 196 197 196 191 184 182 183 181 180 182 181 181 182 183 185 186 191 199 203 212 224 224 220 216 211 213 217 217 216 216 214 215 217 217 219 218 217 221 230 240 254 266 271 276 283 285 284 285 284 282 280 279 276 274 271 272 272 271 271 272 272 271 270 271 272 273 274 275
192 190 188 191 192 190 187 186 190 196 199 200 200 200 199 199 198 201 201 195 190 187 180 174 171 175 179 180 177 177 181 180 175 171 168 158 152 164 172 164 163 170 178 191 203 211 216 217 217 218 218 224 231 233 239 248 258 270 280 284 286 289 291 293 297 299 296 293 292 289 288 287 285 284 283 283 285 283 281 281 281 281 281 282 283
187 187 187 189 189 187 186 187 191 194 197 200 202 202 201 200 200 198 191 184 184 183 174 164 164 170 172 168 160 154 152 148 140 134 129 126 123 122 122 120 123 133 142 153 164 178 206 212 203 201 204 45 297 261 260 266 274 284 289 290 289 288 287 288 293 301 307 308 307 303 302 306 305 300 299 299 301 303 301 300 298 296 295 294 293
183 186 189 188 184 182 184 187 190 191 195 200 201 198 194 193 192 187 182 181 179 173 163 158 162 162 156 149 143 137 133 130 127 126 123 121 121 119 119 119 117 116 118 122 124 122 130 138 122 104 92 82 75 61 18 319 311 318 316 311 304 296 288 282 284 295 309 310 310 307 306 310 312 309 306 306 312 319 316 309 303 299 298 297 294
180 183 186 184 179 178 182 185 187 187 191 194 192 190 188 186 184 180 178 176 169 161 156 156 157 154 148 145 140 135 132 130 128 127 125 122 122 122 121 121 115 111 110 107 105 102 101 107 106 98 96 96 86 68 27 336 319 318 314 312 311 305 300 299 303 311 315 310 310 310 306 308 311 310 309 311 318 325 324 318 314 308 304 301 297
178 181 182 177 174 175 179 182 183 182 183 185 184 185 185 182 178 174 170 167 161 157 155 155 155 152 149 147 141 135 133 133 132 132 132 131 131 130 127 123 116 111 106 98 92 85 79 77 78 80 84 71 17 338 327 322 315 310 306 303 306 309 313 315 311 307 303 303 310 308 301 308 314 314 318 324 328 333 335 333 331 327 322 319 313
174 179 178 173 170 170 174 178 179 176 175 177 176 176 178 177 173 168 164 160 157 154 153 153 154 152 149 147 145 140 136 134 136 140 142 141 138 132 125 119 113 109 103 94 84 73 66 60 55 58 55 33 8 345 332 325 314 305 297 292 295 300 301 296 289 291 300 314 330 327 303 313 329 329 332 340 340 338 338 336 335 337 335 333 330
162 166 166 164 164 164 166 171 172 168 166 166 165 167 171 173 170 165 160 157 155 152 150 150 150 148 148 149 148 145 139 134 133 136 139 139 135 129 122 115 112 110 103 95 89 79 75 72 68 65 59 48 38 23 5 349 341 334 313 300 308 314 318 312 257 94 65 12 6 8 342 335 347 344 338 340 339 335 334 337 342 343 342 340 337
143 140 140 146 152 153 155 160 162 159 154 153 158 164 169 173 171 164 158 155 151 146 140 137 135 135 139 143 144 141 138 134 132 134 139 140 135 130 123 116 112 107 101 98 95 90 86 82 81 79 75 70 64 55 52 41 27 25 39 57 48 20 12 21 35 59 67 45 23 15 0 353 356 348 340 340 343 344 344 347 348 345 340 339 337
129 124 120 129 137 138 141 147 150 150 148 149 156 161 165 171 171 164 157 150 141 134 129 127 125 126 129 134 138 139 135 133 134 138 145 146 139 133 130 124 116 108 106 107 103 97 92 89 90 89 82 79 75 71 69 64 57 52 50 54 47 29 33 38 18 16 68 41 18 10 2 360 1 357 352 349 352 357 357 352 348 344 339 336 336
118 115 112 119 125 124 127 133 137 141 142 144 153 158 160 166 168 162 155 145 134 130 130 130 130 130 127 127 128 130 128 127 131 135 140 143 136 131 133 128 115 107 108 111 109 108 108 102 97 93 86 83 80 77 74 69 66 62 57 57 53 46 54 56 34 26 51 18 11 11 11 8 7 8 10 6 357 352 352 352 350 346 344 343 341